This demonstration page uses our WeatherBlox Daily Observations layout. Learn more.

Left ArrowRight Arrow

41.55636, -103.73856

Hourly Observations for December 4, 2022

Temp ( °F °C ) Dew Point ( °F °C ) Humidity (%) Winds ( mph kmh ) Pressure ( in mb ) Visibility ( mi km ) Precip ( " mm )
12:55 am 00:55 Clear 28 -2.5 18 -8 66 66 W 8 13 30.25 1024 10 16 0.00 0.00
1:55 am 01:55 Clear 32 -0.2 20 -6.6 62 62 Calm 30.23 1024 10 16 0.00 0.00
2:55 am 02:55 Clear 27 -2.9 17 -8.2 67 67 WSW 7 11 30.25 1024 10 16 0.00 0.00
3:55 am 03:55 Clear 29 -1.5 20 -6.8 67 67 SW 5 7 30.22 1023 10 16 0.00 0.00
4:55 am 04:55 Clear 30 -1.1 20 -6.8 65 65 WSW 5 7 30.22 1023 10 16 0.00 0.00
5:55 am 05:55 Clear 23 -5.2 16 -8.9 75 75 WSW 10 17 30.26 1025 10 16 0.00 0.00
6:55 am 06:55 Mostly Clear 25 -3.7 16 -8.8 68 68 WSW 13 20 30.23 1024 10 16 0.00 0.00
7:55 am 07:55 Mostly Cloudy 31 -0.8 24 -4.5 76 76 SW 12 19 30.20 1023 10 16 0.00 0.00
8:55 am 08:55 Sunny 38 3.1 27 -2.8 65 65 WSW 13 20 30.16 1021 10 16 0.00 0.00
9:55 am 09:55 Sunny 44 6.9 25 -3.9 46 46 SW 13 20 30.12 1020 10 16 0.00 0.00
10:55 am 10:55 Mostly Sunny 47 8.5 25 -4 41 41 WSW 10 17 30.08 1019 10 16 0.00 0.00
11:55 am 11:55 Sunny 48 8.9 25 -4 40 40 SW 28 44 29.99 1016 10 16 0.00 0.00
12:55 pm 12:55 Partly Cloudy 47 8.2 26 -3.3 44 44 SW 26 43 29.96 1015 10 16 0.00 0.00
1:55 pm 13:55 Sunny 47 8.3 27 -2.9 45 45 SW 21 33 29.91 1013 10 16 0.00 0.00
2:55 pm 14:55 Mostly Cloudy 48 8.9 23 -5 37 37 SW 21 33 29.88 1012 10 16 0.00 0.00
3:55 pm 15:55 Cloudy 49 9.7 25 -3.9 38 38 SW 15 24 29.84 1011 10 16 0.00 0.00
4:55 pm 16:55 Mostly Clear 44 6.5 27 -2.9 51 51 SW 20 31 29.83 1010 10 16 0.00 0.00
5:55 pm 17:55 Mostly Clear 43 6.2 25 -4 48 48 SW 13 20 29.86 1011 10 16 0.00 0.00
6:55 pm 18:55 Partly Cloudy 42 5.5 25 -3.8 51 51 W 12 19 29.85 1011 10 16 0.00 0.00
7:55 pm 19:55 Cloudy 42 5.7 26 -3.4 52 52 N 5 7 29.83 1010 10 16 0.00 0.00
8:55 pm 20:55 Mostly Clear 40 4.4 26 -3.1 58 58 W 5 7 29.80 1009 10 16 0.00 0.00
9:55 pm 21:55 Clear 40 4.6 28 -2.3 61 61 W 6 9 29.77 1008 10 16 0.00 0.00
10:55 pm 22:55 Partly Cloudy 39 3.7 28 -2.5 64 64 WSW 7 11 29.77 1008 10 16 0.00 0.00
11:55 pm 23:55 Clear 33 0.8 27 -2.8 77 77 W 6 9 29.77 1008 10 16 0.00 0.00

Powered by AerisWeather